EW5206 Weather Reports


Display with metric or nautical units.
time (UTC)temp
F
wind
direction
speed
MPH
gust
MPH
rain 1hr
in
rain 24hr
in
rain mn
in
humidity
%
barometer
mb
20260510060047 55 0.0 0.0 0.00 0.00 0.00 75 1012.0
20260510054557 56 0.0 0.0 0.00 0.00 0.00 74 1012.1
20260510053046 56 0.0 0.0 0.00 0.00 0.00 74 1012.3
20260510051542 56 0.0 0.0 0.00 0.00 0.00 73 1012.2
20260510050043 56 0.0 0.0 0.00 0.00 0.00 71 1012.5
20260510044545 57 0.0 0.0 0.00 0.00 0.00 70 1012.4
20260510043036 57 0.0 0.0 0.00 0.00 0.00 69 1012.4
20260510041540 58 0.0 0.0 0.00 0.00 0.00 68 1012.4
20260510040029 58 0.0 0.0 0.00 0.00 0.00 66 1012.3
20260510034527 58 0.0 0.0 0.00 0.00 0.00 67 1012.2
20260510033027 58 0.0 0.0 0.00 0.00 0.00 66 1012.2
20260510031545 59 0.0 0.0 0.00 0.00 0.00 66 1012.2
20260510030033 59 0.0 0.0 0.00 0.00 0.00 65 1012.2
20260510024526 59 0.0 0.0 0.00 0.00 0.00 64 1012.2
20260510023025 59 0.0 0.0 0.00 0.00 0.00 64 1012.0
20260510021531 60 0.0 0.0 0.00 0.00 0.00 64 1011.9
20260510020024 60 0.0 0.0 0.00 0.00 0.00 62 1011.8
20260510014525 60 0.0 0.0 0.00 0.00 0.00 61 1011.4
20260510013023 61 0.0 0.0 0.00 0.00 0.00 60 1011.1
20260510011523 62 0.0 0.0 0.00 0.00 0.00 59 1010.7
20260510010024 62 0.0 0.0 0.00 0.00 0.00 57 1010.5
20260510004522 63 0.0 0.0 0.00 0.00 0.00 56 1010.5
20260510003021 64 0.0 0.0 0.00 0.00 0.00 54 1010.5
20260510001520 65 0.0 0.0 0.00 0.00 0.00 52 1010.4
20260510000022 66 0.0 0.0 0.00 0.00 0.00 51 1010.2
20260509234520 66 0.0 0.0 0.00 0.00 0.00 50 1009.9
20260509233019 67 0.0 0.0 0.00 0.00 0.00 49 1009.7
20260509231519 68 0.0 0.0 0.00 0.00 0.00 48 1009.7
20260509230019 68 0.0 0.0 0.00 0.00 0.00 47 1009.5
20260509224519 69 0.0 0.0 0.00 0.00 0.00 46 1009.5
20260509223020 69 0.0 0.0 0.00 0.00 0.00 46 1009.5
20260509221517 70 0.0 0.0 0.00 0.00 0.00 44 1009.3
20260509220017 71 0.0 0.0 0.00 0.00 0.00 44 1009.3
20260509214516 71 0.0 0.0 0.00 0.00 0.00 43 1009.3
20260509213017 72 0.0 0.0 0.00 0.00 0.00 43 1009.1
20260509211517 72 0.0 0.0 0.00 0.00 0.00 42 1009.0
20260509210016 72 0.0 0.0 0.00 0.00 0.00 43 1008.9
20260509204516 72 0.0 0.0 0.00 0.00 0.00 43 1008.8
20260509203015 72 0.0 0.0 0.00 0.00 0.00 43 1008.6
20260509201516 72 0.0 0.0 0.00 0.00 0.00 43 1008.7
20260509200014 72 0.0 0.0 0.00 0.00 0.00 42 1008.6
20260509194513 72 0.0 0.0 0.00 0.00 0.00 40 1008.7
20260509193013 73 0.0 0.0 0.00 0.00 0.00 42 1008.7
20260509191512 73 0.0 0.0 0.00 0.00 0.00 41 1008.6
20260509190011 73 0.0 0.0 0.00 0.00 0.00 40 1008.8
20260509184515 73 0.0 0.0 0.00 0.00 0.00 41 1008.8
20260509183009 73 0.0 0.0 0.00 0.00 0.00 41 1008.9
20260509181507 73 0.0 0.0 0.00 0.00 0.00 40 1009.0
20260509180006 73 0.0 0.0 0.00 0.00 0.00 41 1009.2
20260509174508 74 0.0 0.0 0.00 0.00 0.00 43 1009.3
20260509173013 74 0.0 0.0 0.00 0.00 0.00 43 1009.6
20260509171505 73 0.0 0.0 0.00 0.00 0.00 45 1009.5
20260509170124 73 0.0 0.0 0.00 0.00 0.00 45 1009.8
20260509164604 74 0.0 0.0 0.00 0.00 0.00 42 1010.0
20260509163059 77 0.0 0.0 0.00 0.00 0.00 40 1010.4
20260509161559 78 0.0 0.0 0.00 0.00 0.00 42 1010.2
20260509154557 78 0.0 0.0 0.00 0.00 0.00 42 1010.1
20260509153056 79 0.0 0.0 0.00 0.00 0.00 38 1009.9
20260509151615 80 0.0 0.0 0.00 0.00 0.00 40 1010.3
20260509150052 79 0.0 0.0 0.00 0.00 0.00 43 1010.3
20260509144547 78 0.0 0.0 0.00 0.00 0.00 44 1010.2
20260509143053 78 0.0 0.0 0.00 0.00 0.00 45 1010.4
20260509141545 75 0.0 0.0 0.00 0.00 0.00 49 1010.6
20260509140036 72 0.0 0.0 0.00 0.00 0.00 53 1010.6
20260509134534 67 0.0 0.0 0.00 0.00 0.00 62 1010.7
20260509133028 63 0.0 0.0 0.00 0.00 0.00 65 1010.7
20260509131525 60 0.0 0.0 0.00 0.00 0.00 71 1010.9
20260509130047 58 0.0 0.0 0.00 0.00 0.00 73 1011.4
20260509124528 55 0.0 0.0 0.00 0.00 0.00 82 1011.5
20260509123012 52 0.0 0.0 0.00 0.00 0.00 84 1011.7
20260509121509 51 0.0 0.0 0.00 0.00 0.00 84 1012.0
20260509120013 50 0.0 0.0 0.00 0.00 0.00 84 1012.0
20260509114508 50 0.0 0.0 0.00 0.00 0.00 84 1011.9
20260509113008 49 0.0 0.0 0.00 0.00 0.00 84 1011.4
20260509111507 49 0.0 0.0 0.00 0.00 0.00 84 1011.4
20260509110006 49 0.0 0.0 0.00 0.00 0.00 83 1011.5
20260509104505 49 0.0 0.0 0.00 0.00 0.00 82 1011.3
20260509103004 49 0.0 0.0 0.00 0.00 0.00 82 1011.3
20260509101509 49 0.0 0.0 0.00 0.00 0.00 82 1011.0
20260509100002 49 0.0 0.0 0.00 0.00 0.00 81 1011.3
20260509094606 49 0.0 0.0 0.00 0.00 0.00 81 1011.2
20260509093100 49 0.0 0.0 0.00 0.00 0.00 80 1011.3
20260509091555 49 0.0 0.0 0.00 0.00 0.00 79 1011.4
20260509090057 49 0.0 0.0 0.00 0.00 0.00 79 1011.4
20260509084602 49 0.0 0.0 0.00 0.00 0.00 78 1011.5
20260509083052 49 0.0 0.0 0.00 0.00 0.00 77 1011.6
20260509081556 49 0.0 0.0 0.00 0.00 0.00 76 1011.5
20260509080056 49 0.0 0.0 0.00 0.00 0.00 74 1011.4
20260509074547 49 0.0 0.0 0.00 0.00 0.00 72 1011.6
20260509073047 49 0.0 0.0 0.00 0.00 0.00 72 1011.8
20260509071547 49 0.0 0.0 0.00 0.00 0.00 70 1011.9
20260509070044 49 0.0 0.0 0.00 0.00 0.00 70 1012.1
20260509064552 50 0.0 0.0 0.00 0.00 0.00 69 1012.3
20260509063037 50 0.0 0.0 0.00 0.00 0.00 68 1012.4
20260509061538 50 0.0 0.0 0.00 0.00 0.00 67 1012.6